Latest Weather Observations for Gympie

IDQ60901

Issued at 11:01 am EST Tuesday 27 January 2015 (issued every 10 minutes, with the page automatically refreshed every 10 minutes)

About weather observations | Map of Brisbane area stations | Latest observations for Brisbane area | Other Formats
Station Details ID: 040093 Name: GYMPIE Lat: -26.18 Lon: 152.64 Height: 64.5 m
Data from the previous 72 hours. | See also: Recent months at Gympie
Date/Time
EST
Tmp

°C
App
Tmp
°C
Dew
Point
°C
Rel
Hum
%
Delta-T

°C
Wind Press
QNH
hPa
Press
MSL
hPa
Rain
since
9 am
mm
Dir
 
Spd
km/h
Gust
km/h
Spd
kts
Gust
kts
27/11:00am 29.2 30.9 20.1 58 6.0 SE 11 19 6 10 1007.0 1006.6 0.0
27/10:30am 30.2 33.1 21.8 60 5.7 SE 9 15 5 8 1007.4 1007.0 0.0
27/10:00am 29.5 31.9 20.9 60 5.7 ESE 9 19 5 10 1007.6 1007.2 0.0
27/09:30am 29.0 29.8 20.7 61 5.5 ESE 17 24 9 13 1007.6 1007.2 0.0
27/09:00am 28.8 32.4 23.0 71 4.0 SE 9 17 5 9 1007.4 1007.0 2.4
27/08:30am 26.6 29.5 21.8 75 3.2 SE 9 19 5 10 1007.2 1006.8 2.4
27/08:00am 26.9 29.7 21.6 72 3.5 SE 9 19 5 10 1006.8 1006.5 2.4
27/07:30am 27.0 30.8 22.4 76 3.1 SSE 6 11 3 6 1007.0 1006.6 2.4
27/07:00am 26.0 30.3 22.7 82 2.2 SSE 4 6 2 3 1006.8 1006.5 2.4
27/06:30am 24.7 29.6 22.4 87 1.5 CALM 0 0 0 0 1007.0 1006.6 2.4
27/06:00am 23.4 28.0 21.8 91 1.1 CALM 0 0 0 0 1006.6 1006.3 2.4
27/05:30am 23.3 28.0 21.9 92 0.9 CALM 0 0 0 0 1006.8 1006.5 2.4
27/05:00am 23.2 27.4 21.8 92 0.9 SSE 2 4 1 2 1006.4 1006.1 2.4
27/04:30am 23.7 27.3 22.1 91 1.1 SE 6 9 3 5 1006.0 1005.7 2.4
27/04:00am 24.0 28.1 22.3 90 1.1 SE 4 6 2 3 1006.0 1005.7 2.4
27/03:30am 24.3 28.6 22.7 91 1.1 SSW 4 6 2 3 1006.0 1005.7 2.4
27/03:00am 24.0 28.5 22.3 90 1.1 SE 2 4 1 2 1005.6 1005.3 2.4
27/02:30am 24.2 28.4 22.5 90 1.1 SE 4 7 2 4 1005.4 1005.1 2.4
27/02:00am 24.3 28.6 22.6 90 1.1 SSE 4 6 2 3 1005.8 1005.5 2.4
27/01:30am 24.4 28.6 22.5 89 1.3 SSE 4 6 2 3 1005.9 1005.6 2.4
27/01:00am 25.0 29.0 22.7 87 1.6 SE 6 11 3 6 1006.1 1005.8 2.4
27/12:30am 25.1 28.9 22.8 87 1.6 SSE 7 11 4 6 1006.5 1006.2 2.4
27/12:00am 25.4 29.2 22.7 85 1.8 SSE 7 13 4 7 1007.0 1006.6 2.4
 
Date/Time
EST
Tmp

°C
App
Tmp
°C
Dew
Point
°C
Rel
Hum
%
Delta-T

°C
Wind Press
QNH
hPa
Press
MSL
hPa
Rain
since
9 am
mm
Dir
 
Spd
km/h
Gust
km/h
Spd
kts
Gust
kts
26/11:00pm 25.9 29.5 23.0 84 2.0 SSE 9 15 5 8 1007.6 1007.2 2.4
26/10:30pm 26.4 30.5 23.3 83 2.1 SSE 7 19 4 10 1008.0 1007.6 2.4
26/10:00pm 26.1 30.6 23.6 86 1.7 SSE 6 9 3 5 1008.4 1008.0 2.4
26/09:30pm 26.4 30.9 23.9 86 1.7 SE 7 9 4 5 1008.2 1007.8 2.4
26/09:00pm 27.0 30.7 23.9 83 2.1 SE 11 22 6 12 1007.9 1007.5 2.4
26/08:30pm 27.1 31.1 24.4 85 1.9 SSE 11 17 6 9 1007.4 1007.0 2.4
26/08:00pm 26.9 31.5 23.8 83 2.1 SSE 6 7 3 4 1006.7 1006.4 2.4
26/07:30pm 27.6 30.7 23.6 79 2.8 ESE 13 24 7 13 1006.2 1005.9 2.4
26/07:00pm 28.1 32.0 24.3 80 2.6 E 11 20 6 11 1006.4 1006.1 2.4
26/06:30pm 28.3 32.8 23.9 77 3.0 ESE 7 17 4 9 1006.6 1006.3 2.4
26/06:00pm 28.7 32.6 23.6 74 3.5 E 9 20 5 11 1006.0 1005.7 2.4
26/05:30pm 29.2 32.3 23.6 72 3.9 E 13 20 7 11 1005.6 1005.3 2.4
26/05:00pm 29.5 34.3 24.1 72 3.8 ESE 6 9 3 5 1005.3 1005.0 2.4
26/04:30pm 29.1 33.2 24.0 74 3.5 SE 9 17 5 9 1004.8 1004.5 2.4
26/04:00pm 28.9 32.4 23.6 73 3.7 E 11 17 6 9 1004.2 1003.9 2.4
26/03:30pm 29.0 32.7 23.9 74 3.5 SE 11 19 6 10 1004.5 1004.2 2.4
26/03:00pm 28.8 33.9 25.0 80 2.7 SSE 7 13 4 7 1004.9 1004.6 2.4
26/02:30pm 29.1 33.1 24.4 76 3.3 ESE 11 19 6 10 1004.8 1004.5 2.4
26/02:00pm 29.4 33.0 24.3 74 3.6 ESE 13 20 7 11 1004.5 1004.2 2.4
26/01:30pm 28.3 34.3 24.3 79 2.8 CALM 0 6 0 3 1004.1 1003.8 2.4
26/01:12pm 27.8 31.1 23.8 79 2.8 SE 13 20 7 11 1004.6 1004.3 0.8
26/01:00pm 32.9 35.7 23.0 56 6.9 E 13 24 7 13 1004.6 1004.3 0.0
26/12:30pm 34.2 38.3 23.9 55 7.2 ESE 9 19 5 10 1004.8 1004.5 0.0
26/12:00pm 33.2 38.1 24.7 61 6.0 ESE 7 19 4 10 1005.2 1004.9 0.0
26/11:30am 33.5 38.6 24.9 60 6.1 E 7 15 4 8 1005.5 1005.2 0.0
26/11:00am 32.9 37.8 24.4 61 6.0 ENE 6 9 3 5 1006.0 1005.7 0.0
26/10:30am 32.2 36.9 24.0 62 5.7 NE 6 9 3 5 1006.3 1006.0 0.0
26/10:00am 32.0 36.6 23.8 62 5.7 E 6 9 3 5 1006.4 1006.1 0.0
26/09:30am 31.2 35.7 23.0 61 5.6 ESE 4 7 2 4 1006.6 1006.3 0.0
26/09:00am 29.9 34.9 23.8 70 4.2 SSE 4 7 2 4 1006.8 1006.5 7.0
26/08:30am 28.9 34.4 24.7 78 2.9 SE 4 6 2 3 1006.8 1006.5 7.0
26/08:00am 28.1 33.1 24.5 81 2.5 SSE 6 9 3 5 1007.0 1006.6 7.0
26/07:30am 26.9 32.0 24.0 84 2.0 SSE 4 9 2 5 1006.8 1006.5 7.0
26/07:00am 25.3 30.8 23.4 89 1.3 CALM 0 0 0 0 1006.6 1006.3 7.0
26/06:30am 24.1 29.5 23.2 95 0.6 CALM 0 0 0 0 1006.3 1006.0 7.0
26/06:00am 23.0 27.5 22.3 96 0.5 NNW 2 4 1 2 1006.1 1005.8 7.0
26/05:30am 22.7 27.5 22.2 97 0.3 CALM 0 0 0 0 1005.6 1005.3 7.0
26/05:00am 22.6 26.7 22.3 98 0.2 NNW 4 6 2 3 1005.5 1005.2 7.0
26/04:30am 22.9 27.8 22.4 97 0.3 CALM 0 0 0 0 1005.3 1005.0 7.0
26/04:00am 22.9 27.7 22.2 96 0.5 CALM 0 0 0 0 1005.1 1004.8 7.0
26/03:30am 23.0 27.9 22.3 96 0.5 CALM 0 0 0 0 1005.1 1004.8 7.0
26/03:00am 23.2 28.2 22.5 96 0.5 CALM 0 0 0 0 1005.3 1005.0 7.0
26/02:30am 23.3 28.0 22.6 96 0.5 ESE 2 2 1 1 1005.0 1004.7 7.0
26/02:00am 23.6 28.4 22.8 95 0.5 WNW 2 4 1 2 1005.3 1005.0 7.0
26/01:30am 23.6 28.8 22.8 95 0.5 CALM 0 0 0 0 1005.5 1005.2 7.0
26/01:00am 23.6 28.0 22.8 95 0.5 N 4 4 2 2 1005.7 1005.4 7.0
26/12:30am 23.9 29.1 22.9 94 0.7 CALM 0 2 0 1 1006.3 1006.0 7.0
26/12:00am 24.0 28.9 23.0 94 0.7 N 2 2 1 1 1006.6 1006.3 7.0
 
Date/Time
EST
Tmp

°C
App
Tmp
°C
Dew
Point
°C
Rel
Hum
%
Delta-T

°C
Wind Press
QNH
hPa
Press
MSL
hPa
Rain
since
9 am
mm
Dir
 
Spd
km/h
Gust
km/h
Spd
kts
Gust
kts
25/11:30pm 23.8 28.6 22.8 94 0.7 WNW 2 4 1 2 1006.5 1006.2 7.0
25/11:00pm 24.3 29.2 23.1 93 0.8 N 2 6 1 3 1006.4 1006.1 7.0
25/10:30pm 24.3 29.2 23.1 93 0.8 NNW 2 4 1 2 1006.1 1005.8 7.0
25/10:00pm 24.5 29.8 23.1 92 1.0 CALM 0 0 0 0 1006.1 1005.8 7.0
25/09:30pm 24.7 30.0 23.1 91 1.1 CALM 0 0 0 0 1005.9 1005.6 7.0
25/09:00pm 24.7 30.0 23.1 91 1.1 CALM 0 0 0 0 1005.7 1005.4 7.0
25/08:30pm 24.9 30.2 23.0 89 1.3 CALM 0 0 0 0 1005.4 1005.1 7.0
25/08:00pm 25.5 30.2 22.6 84 2.0 NW 2 4 1 2 1005.4 1005.1 6.8
25/07:30pm 25.0 29.3 22.7 87 1.6 W 4 7 2 4 1005.3 1005.0 6.8
25/07:00pm 26.1 30.8 22.6 81 2.4 ENE 2 4 1 2 1004.7 1004.4 6.8
25/06:30pm 26.2 30.5 22.7 81 2.4 NE 4 6 2 3 1004.8 1004.5 6.8
25/06:00pm 26.0 28.9 22.5 81 2.4 NE 11 20 6 11 1003.4 1003.1 6.8
25/05:30pm 26.7 27.9 23.2 81 2.4 ESE 22 35 12 19 1002.7 1002.4 6.4
25/05:26pm 28.3 31.4 24.1 78 2.9 SE 15 35 8 19 1003.1 1002.8 2.6
25/05:00pm 33.3 36.6 23.9 58 6.6 NNE 13 24 7 13 1002.1 1001.8 0.0
25/04:30pm 35.8 39.4 19.7 39 10.7 CALM 0 2 0 1 1001.7 1001.3 0.0
25/04:00pm 36.8 39.2 20.1 37 11.3 SW 7 13 4 7 1001.6 1001.2 0.0
25/03:30pm 36.8 40.2 21.0 40 10.7 SSW 4 7 2 4 1002.2 1001.9 0.0
25/03:00pm 36.3 40.5 23.2 47 9.2 WNW 6 9 3 5 1002.4 1002.1 0.0
25/02:30pm 35.5 38.9 21.7 44 9.4 WNW 6 11 3 6 1002.8 1002.5 0.0
25/02:00pm 35.0 39.3 22.7 49 8.5 N 4 7 2 4 1003.2 1002.9 0.0
25/01:30pm 34.3 39.4 23.3 52 7.7 E 2 7 1 4 1003.4 1003.1 0.0
25/01:00pm 33.9 38.0 23.0 53 7.6 SW 6 13 3 7 1003.6 1003.3 0.0
25/12:30pm 33.3 36.7 22.7 53 7.3 N 9 17 5 9 1004.0 1003.7 0.0
25/12:00pm 33.2 37.0 23.5 56 6.8 NNW 9 19 5 10 1004.6 1004.3 0.0
25/11:30am 32.7 36.9 24.7 62 5.6 NNW 11 20 6 11 1005.1 1004.8 0.0
25/11:00am 31.6 35.4 24.0 64 5.3 N 11 17 6 9 1005.5 1005.2 0.0
25/10:30am 30.8 34.8 23.7 66 4.9 NNW 9 15 5 8 1006.0 1005.7 0.0
25/10:00am 30.5 35.3 24.2 69 4.4 NNW 6 11 3 6 1006.4 1006.1 0.0
25/09:30am 29.2 33.3 23.2 70 4.1 NW 7 13 4 7 1006.6 1006.3 0.0
25/09:00am 28.5 32.9 23.4 74 3.5 NNW 6 9 3 5 1007.1 1006.7 0.2
25/08:30am 27.8 32.1 23.6 78 2.9 NNW 7 11 4 6 1007.3 1006.9 0.2
25/08:00am 26.1 30.7 22.4 80 2.5 SSW 2 4 1 2 1007.7 1007.3 0.2
25/07:30am 25.2 30.4 22.9 87 1.6 CALM 0 0 0 0 1007.6 1007.2 0.2
25/07:00am 23.1 27.8 21.9 93 0.8 CALM 0 0 0 0 1007.8 1007.4 0.2
25/06:30am 22.5 27.1 21.8 96 0.5 CALM 0 0 0 0 1007.7 1007.3 0.2
25/06:00am 22.1 26.6 21.6 97 0.3 CALM 0 0 0 0 1007.5 1007.1 0.2
25/05:30am 21.9 26.3 21.4 97 0.3 CALM 0 0 0 0 1007.1 1006.7 0.2
25/05:00am 21.8 26.2 21.3 97 0.3 CALM 0 0 0 0 1006.7 1006.4 0.2
25/04:30am 22.0 26.5 21.5 97 0.3 CALM 0 0 0 0 1006.5 1006.2 0.2
25/04:00am 22.0 26.5 21.5 97 0.3 CALM 0 0 0 0 1006.4 1006.1 0.2
25/03:30am 22.0 26.5 21.5 97 0.3 CALM 0 0 0 0 1006.3 1006.0 0.2
25/03:00am 21.9 26.3 21.4 97 0.3 CALM 0 0 0 0 1006.4 1006.1 0.2
25/02:30am 22.0 26.3 21.2 95 0.5 CALM 0 0 0 0 1006.5 1006.2 0.2
25/02:00am 22.1 26.5 21.3 95 0.5 CALM 0 0 0 0 1006.7 1006.4 0.2
25/01:30am 22.2 26.5 21.2 94 0.7 CALM 0 0 0 0 1006.8 1006.5 0.2
25/01:00am 22.3 26.7 21.3 94 0.7 CALM 0 0 0 0 1007.0 1006.6 0.2
25/12:30am 22.4 26.8 21.4 94 0.7 CALM 0 0 0 0 1007.2 1006.8 0.2
25/12:00am 22.6 27.0 21.4 93 0.8 CALM 0 0 0 0 1007.4 1007.0 0.2
 
Date/Time
EST
Tmp

°C
App
Tmp
°C
Dew
Point
°C
Rel
Hum
%
Delta-T

°C
Wind Press
QNH
hPa
Press
MSL
hPa
Rain
since
9 am
mm
Dir
 
Spd
km/h
Gust
km/h
Spd
kts
Gust
kts
24/11:30pm 22.7 27.2 21.5 93 0.8 CALM 0 0 0 0 1007.7 1007.3 0.2
24/11:00pm 22.8 27.3 21.6 93 0.8 CALM 0 0 0 0 1007.7 1007.3 0.2
24/10:30pm 22.7 27.0 21.2 91 1.0 CALM 0 2 0 1 1007.8 1007.4 0.2
24/10:00pm 23.3 27.0 21.4 89 1.3 N 4 6 2 3 1007.6 1007.2 0.2
24/09:30pm 23.3 27.7 21.4 89 1.3 CALM 0 0 0 0 1007.4 1007.0 0.2
24/09:00pm 24.3 28.5 21.8 86 1.7 NNE 2 4 1 2 1007.2 1006.8 0.2
24/08:30pm 24.5 28.8 21.2 82 2.2 CALM 0 0 0 0 1006.5 1006.2 0.2
24/08:00pm 25.3 29.3 21.4 79 2.6 NE 2 7 1 4 1006.2 1005.9 0.2
24/07:30pm 25.8 28.8 21.2 76 3.0 E 7 13 4 7 1005.8 1005.5 0.2
24/07:00pm 26.8 30.0 21.6 73 3.5 E 7 11 4 6 1005.8 1005.5 0.2
24/06:30pm 27.3 30.8 21.1 69 4.1 SE 4 6 2 3 1005.3 1005.0 0.2
24/06:00pm 28.5 31.8 21.5 66 4.7 SE 6 9 3 5 1005.2 1004.9 0.2
24/05:30pm 28.5 31.6 21.5 66 4.7 SSE 7 13 4 7 1004.8 1004.5 0.2
24/05:00pm 28.9 32.2 21.9 66 4.7 SSE 7 13 4 7 1004.8 1004.5 0.2
24/04:30pm 29.0 31.8 21.5 64 5.0 SE 9 15 5 8 1004.7 1004.4 0.2
24/04:00pm 29.0 33.7 23.4 72 3.9 E 4 11 2 6 1004.7 1004.4 0.2
24/03:30pm 27.2 31.1 22.6 76 3.1 NE 6 11 3 6 1004.9 1004.6 0.2
24/03:00pm 28.4 31.7 21.9 68 4.4 S 7 13 4 7 1005.0 1004.7 0.2
24/02:30pm 28.9 32.2 21.9 66 4.7 SSE 7 13 4 7 1004.9 1004.6 0.2
24/02:00pm 28.5 30.8 22.0 68 4.4 SE 13 24 7 13 1005.1 1004.8 0.2
24/01:30pm 29.6 32.7 22.1 64 5.1 SSE 9 17 5 9 1005.3 1005.0 0.2
24/01:00pm 28.8 31.3 21.8 66 4.7 SE 11 17 6 9 1005.5 1005.2 0.2
24/12:30pm 29.0 32.1 22.2 66 4.6 SSE 9 15 5 8 1005.6 1005.3 0.2
24/12:00pm 27.8 31.1 21.8 70 4.0 SSE 7 13 4 7 1005.9 1005.6 0.2
24/11:30am 27.0 31.0 22.0 74 3.4 SSE 4 13 2 7 1006.2 1005.9 0.2

Latest Capital City Observations: Canberra | Sydney | Melbourne | Brisbane | Adelaide | Perth | Hobart | Darwin

Other Formats:

Comma delimited format used in spreadsheet applications
http://www.bom.gov.au/fwo/IDQ60901/IDQ60901.94566.axf

JavaScript Object Notation format (JSON) in row-major order
http://www.bom.gov.au/fwo/IDQ60901/IDQ60901.94566.json